GWF666 KEWR-KDTW

Flight info

Callsign GWF666
Flight time N/A
Altitude 43000
Route GAYEL J95 CFB TRAAD JACCI FERRL2
Aircraft C750/M-SBDE3FGHRWXY/S

Departure

Time 2026-05-06 15:06
Airport Newark Liberty International Airport (KEWR)

Arrival

Time N/A
Airport Detroit Metropolitan Wayne County Airport (KDTW)
Time Latitude Longitude Altitude Speed Heading
2026-05-06 15:06 40.65220 -74.55315 15775 ft 322 kts 279°
2026-05-06 15:06 40.65894 -74.58236 16071 ft 343 kts 280°
2026-05-06 15:07 40.66597 -74.61256 17042 ft 343 kts 281°
2026-05-06 15:07 40.67289 -74.64283 17897 ft 348 kts 281°
2026-05-06 15:07 40.67745 -74.66315 18402 ft 351 kts 281°
2026-05-06 15:07 40.68463 -74.69419 19129 ft 356 kts 282°
2026-05-06 15:08 40.69188 -74.72560 19856 ft 359 kts 282°
2026-05-06 15:08 40.69906 -74.75729 20529 ft 363 kts 281°
2026-05-06 15:08 40.70631 -74.78938 21162 ft 367 kts 282°
2026-05-06 15:08 40.71368 -74.82178 21810 ft 371 kts 282°
2026-05-06 15:09 40.72115 -74.85455 22447 ft 375 kts 282°
2026-05-06 15:09 40.72866 -74.88768 23074 ft 379 kts 282°
2026-05-06 15:09 40.73623 -74.92121 23651 ft 383 kts 282°
2026-05-06 15:09 40.74387 -74.95499 24255 ft 386 kts 282°
2026-05-06 15:10 40.75156 -74.98900 24885 ft 388 kts 282°
2026-05-06 15:10 40.75690 -75.01269 25307 ft 390 kts 282°
2026-05-06 15:12 40.76136 -75.03249 25671 ft 392 kts 282°
2026-05-06 15:12 40.76912 -75.06702 26372 ft 393 kts 282°
2026-05-06 15:13 40.77677 -75.10115 27133 ft 392 kts 282°
2026-05-06 15:13 40.78452 -75.13572 27686 ft 394 kts 282°
2026-05-06 15:13 40.79232 -75.17055 28220 ft 397 kts 282°
2026-05-06 15:13 40.80015 -75.20562 28749 ft 399 kts 282°